Regional Weather Roundup
Issued by NWS

Home | Current Version | Previous Version | Graphics & Text | Print | Product List | Glossary On
Versions: 1 2 3 4 5 6 7 8 9 10 11 12 13 14 15 16 17 18 19 20 21 22 23 24 25 26 27 28 29 30 31 32 33 34 35 36 37 38 39 40 41 42 43 44 45 46 47 48 49 50
000
ASUS45 KSLC 121210
RWRUT

UTAH REGIONAL WEATHER ROUNDUP
NATIONAL WEATHER SERVICE SALT LAKE CITY UT
500 AM MST FRI FEB 12 2016

UTZ001>011-023>025-121300-

NORTHERN UTAH

CITY           SKY/WX    TMP DP  RH WIND       PRES   REMARKS
BRIGHAM CITY   CLOUDY    25  23  92 CALM      30.45R VSB 1/2
HILL AFB       PTCLDY    27  23  86 NW3       30.40R FOG
LOGAN          FOG       20  20 100 CALM      30.42R VSB 1/4
OGDEN          CLOUDY    26  26 100 CALM      30.41R FOG
PROVO AIRPORT    N/A    N/A N/A N/A CALM      30.40F VSB<1/4
SALT LAKE CITY CLOUDY    30  27  88 CALM      30.41S FOG
VERNAL         CLOUDY    15  12  88 W3        30.42S FOG
WENDOVER       CLOUDY    28  25  86 NE3       30.43S
HEBER CITY     PTCLDY    12  10  92 CALM      30.39S
WEST JORDAN    CLOUDY    27  27 100 W3        30.40S

$$

UTZ012>022-026-027-121300-

SOUTHERN/CENTRAL UTAH

CITY           SKY/WX    TMP DP  RH WIND       PRES   REMARKS
BLANDING       PTCLDY    35  23  60 CALM      30.46S
BRYCE CANYON   PTCLDY    21  10  62 W13       30.43S WCI   9
CEDAR CITY     PTCLDY    19  15  84 CALM      30.35F
DELTA          CLOUDY    14  12  94 CALM      30.41S VSB<1/4
HANKSVILLE     MOCLDY    28  28 100 CALM      30.44S
MILFORD        FOG        8   6  92 SW3       30.39F VSB 1/4
MOAB/CYNLANDS  MOCLDY    30  26  85 CALM      30.40S
PRICE          PTCLDY    24  18  77 CALM      30.40R
ST GEORGE      MOSUNNY   39  23  52 CALM      30.33S
KANAB          CLEAR     32  28  86 N5        30.39S WCI  27

$$

REGIONAL REPORTS     COLORADO/ARIZONA

CITY           SKY/WX    TMP DP  RH WIND       PRES   REMARKS
CRAIG, CO      CLOUDY     5   0  79 CALM      30.42S
GRAND JUNCTION CLOUDY    23  21  92 E5        30.42S WCI  17
RIFLE          CLOUDY    18  12  77 E5        30.45R WCI  11
MONTROSE       CLOUDY    23  16  74 S8        30.45S WCI  14
CORTEZ         CLOUDY    20  15  81 CALM      30.41S
PAGE, AZ       CLEAR     34  29  82 CALM      30.37S HAZE
GRAND CANYON   PTCLDY    22  17  81 CALM      30.40S
KINGMAN        CLEAR     34  24  67 CALM      30.24F
FLAGSTAFF      PTCLDY    22  17  81 CALM      30.40S

$$

REGIONAL REPORTS    NEVADA/IDAHO/WYOMING

CITY           SKY/WX    TMP DP  RH WIND       PRES   REMARKS
LAS VEGAS, NV  PTCLDY    48  22  35 SW5       30.19S
ELY            MOCLDY    23  12  62 S15       30.36F WCI  10
ELKO           CLOUDY    13   9  84 E6        30.38F WCI   4
POCATELLO, ID  CLOUDY    22  20  92 E5        30.36R WCI  16
BURLEY         PTCLDY    28  27  96 N3        30.30S
EVANSTON, WY   CLOUDY    32  14  47 S7        30.37F WCI  26
ROCK SPRINGS   CLOUDY    32  18  56 W6        30.36S WCI  26

$$



USA.gov is the U.S. government's official web portal to all federal, state and local government web resources and services.